SAS828 EHAM-ENGM

Flight info

Callsign SAS828
Flight time 1h 16m
Altitude 37000
Route SPY4V ANDIK Z733 KONOM DCT AMADA DCT PIPEX M609 RIPAM RIPAM4M
Aircraft A320/M-SDE3FGHIRWY/LB1

Departure

Time 2026-05-06 20:05
Airport Amsterdam Airport Schiphol (EHAM)

Arrival

Time 2026-05-06 21:22
Airport Oslo-Gardermoen International Airport (ENGM)
Time Latitude Longitude Altitude Speed Heading
2026-05-06 19:41 52.30469 4.76573 -1 ft 0 kts 58°
2026-05-06 19:54 52.30459 4.76546 -1 ft 4 kts 61°
2026-05-06 19:55 52.30451 4.76509 -1 ft 4 kts 116°
2026-05-06 19:55 52.30454 4.76499 -1 ft 0 kts 135°
2026-05-06 19:58 52.30454 4.76500 -1 ft 1 kts 136°
2026-05-06 19:59 52.30413 4.76535 -1 ft 10 kts 152°
2026-05-06 19:59 52.30355 4.76580 -1 ft 9 kts 166°
2026-05-06 19:59 52.30302 4.76542 -1 ft 11 kts 232°
2026-05-06 19:59 52.30254 4.76417 -1 ft 13 kts 238°
2026-05-06 20:00 52.30208 4.76296 -1 ft 12 kts 238°
2026-05-06 20:00 52.30147 4.76137 -1 ft 22 kts 238°
2026-05-06 20:00 52.30066 4.75923 -1 ft 21 kts 238°
2026-05-06 20:00 52.29996 4.75741 -1 ft 17 kts 237°
2026-05-06 20:01 52.29934 4.75581 -1 ft 16 kts 238°
2026-05-06 20:01 52.29879 4.75437 -1 ft 12 kts 238°
2026-05-06 20:01 52.29839 4.75326 -1 ft 10 kts 246°
2026-05-06 20:01 52.29837 4.75217 -1 ft 9 kts 288°
2026-05-06 20:02 52.29871 4.75138 -1 ft 8 kts 309°
2026-05-06 20:02 52.29931 4.75022 -1 ft 19 kts 311°
2026-05-06 20:02 52.30033 4.74842 -1 ft 23 kts 314°
2026-05-06 20:02 52.30134 4.74660 9 ft 19 kts 311°
2026-05-06 20:03 52.30222 4.74491 10 ft 19 kts 311°
2026-05-06 20:03 52.30309 4.74328 4 ft 15 kts 311°
2026-05-06 20:03 52.30365 4.74214 -1 ft 11 kts 296°
2026-05-06 20:03 52.30358 4.74100 -1 ft 10 kts 239°
2026-05-06 20:04 52.30299 4.74006 -1 ft 17 kts 215°
2026-05-06 20:04 52.30209 4.73900 -1 ft 13 kts 221°
2026-05-06 20:04 52.30194 4.73779 -2 ft 11 kts 295°
2026-05-06 20:04 52.30238 4.73739 -3 ft 6 kts 358°
2026-05-06 20:05 52.30338 4.73747 -4 ft 40 kts
2026-05-06 20:05 52.30866 4.73798 -1 ft 109 kts
2026-05-06 20:05 52.31806 4.73884 22 ft 158 kts
2026-05-06 20:05 52.32920 4.73983 680 ft 160 kts
2026-05-06 20:06 52.34017 4.74203 1463 ft 160 kts 16°
2026-05-06 20:06 52.35137 4.74847 1859 ft 182 kts 24°
2026-05-06 20:06 52.35942 4.75398 2082 ft 197 kts 24°
2026-05-06 20:06 52.37268 4.76309 2505 ft 219 kts 24°
2026-05-06 20:07 52.38754 4.77296 3087 ft 240 kts 22°
2026-05-06 20:07 52.40355 4.78223 4007 ft 247 kts 20°
2026-05-06 20:07 52.42000 4.79098 5005 ft 251 kts 19°
2026-05-06 20:07 52.43687 4.79973 5952 ft 256 kts 19°
2026-05-06 20:08 52.45402 4.80860 6888 ft 261 kts 19°
2026-05-06 20:08 52.47153 4.81769 7756 ft 267 kts 18°
2026-05-06 20:08 52.48943 4.82701 8640 ft 273 kts 18°
2026-05-06 20:08 52.50766 4.83654 9524 ft 278 kts 17°
2026-05-06 20:09 52.52622 4.84686 10339 ft 285 kts 22°
2026-05-06 20:09 52.54333 4.86382 11130 ft 291 kts 38°
2026-05-06 20:09 52.55750 4.88846 11731 ft 307 kts 49°
2026-05-06 20:09 52.57115 4.91653 12021 ft 330 kts 50°
2026-05-06 20:10 52.58657 4.94548 12538 ft 341 kts 39°
2026-05-06 20:10 52.60696 4.96550 13236 ft 344 kts 18°
2026-05-06 20:10 52.62993 4.97760 13975 ft 348 kts 15°
2026-05-06 20:10 52.65320 4.98936 14655 ft 352 kts 14°
2026-05-06 20:11 52.67577 5.00065 15295 ft 357 kts 14°
2026-05-06 20:11 52.69966 5.01255 15959 ft 361 kts 14°
2026-05-06 20:11 52.72386 5.02467 16629 ft 366 kts 14°
2026-05-06 20:11 52.74841 5.03705 17296 ft 371 kts 14°
2026-05-06 20:12 52.77319 5.04962 17966 ft 375 kts 14°
2026-05-06 20:12 52.79826 5.06236 18552 ft 379 kts 14°
2026-05-06 20:12 52.82362 5.07530 19126 ft 383 kts 14°
2026-05-06 20:12 52.84916 5.08836 19688 ft 387 kts 14°
2026-05-06 20:13 52.87511 5.10162 20252 ft 391 kts 14°
2026-05-06 20:13 52.90128 5.11497 20823 ft 394 kts 14°
2026-05-06 20:13 52.92763 5.12841 21367 ft 398 kts 14°
2026-05-06 20:13 52.95419 5.14196 21907 ft 402 kts 14°
2026-05-06 20:14 52.98101 5.15570 22440 ft 405 kts 15°
2026-05-06 20:14 53.00813 5.16961 22966 ft 409 kts 15°
2026-05-06 20:14 53.03547 5.18365 23478 ft 413 kts 15°
2026-05-06 20:14 53.06302 5.19784 23911 ft 416 kts 15°
2026-05-06 20:15 53.09072 5.21214 24344 ft 419 kts 15°
2026-05-06 20:15 53.11867 5.22657 24779 ft 421 kts 15°
2026-05-06 20:15 53.14675 5.24109 25202 ft 424 kts 15°
2026-05-06 20:15 53.17499 5.25569 25618 ft 427 kts 15°
2026-05-06 20:16 53.20346 5.27042 26041 ft 429 kts 15°
2026-05-06 20:16 53.23169 5.28502 26441 ft 432 kts 15°
2026-05-06 20:16 53.26050 5.29996 26849 ft 435 kts 15°
2026-05-06 20:16 53.28947 5.31498 27254 ft 437 kts 15°
2026-05-06 20:17 53.31868 5.33015 27651 ft 440 kts 15°
2026-05-06 20:17 53.34799 5.34543 28053 ft 442 kts 15°
2026-05-06 20:17 53.37743 5.36082 28452 ft 445 kts 15°
2026-05-06 20:17 53.40712 5.37636 28826 ft 448 kts 15°
2026-05-06 20:18 53.43696 5.39201 29209 ft 450 kts 15°
2026-05-06 20:18 53.46687 5.40770 29580 ft 453 kts 15°
2026-05-06 20:18 53.49703 5.42355 29940 ft 455 kts 15°
2026-05-06 20:18 53.52736 5.43952 30245 ft 458 kts 15°
2026-05-06 20:19 53.55780 5.45554 30528 ft 460 kts 15°
2026-05-06 20:19 53.58840 5.47168 30825 ft 462 kts 15°
2026-05-06 20:19 53.61907 5.48788 31115 ft 463 kts 15°
2026-05-06 20:19 53.64991 5.50450 31398 ft 466 kts 16°
2026-05-06 20:20 53.68052 5.52223 31758 ft 466 kts 17°
2026-05-06 20:20 53.71097 5.54083 32172 ft 465 kts 18°
2026-05-06 20:20 53.74123 5.55986 32590 ft 464 kts 18°
2026-05-06 20:20 53.77143 5.57896 32994 ft 463 kts 18°
2026-05-06 20:21 53.80163 5.59784 33402 ft 462 kts 18°
2026-05-06 20:21 53.83182 5.61643 33806 ft 461 kts 18°
2026-05-06 20:21 53.85504 5.63057 34099 ft 460 kts 17°
2026-05-06 20:21 53.88356 5.64783 34400 ft 460 kts 17°
2026-05-06 20:22 53.91372 5.66608 34698 ft 460 kts 17°
2026-05-06 20:22 53.94389 5.68439 34989 ft 460 kts 17°
2026-05-06 20:22 53.97400 5.70281 35261 ft 461 kts 18°
2026-05-06 20:22 54.00415 5.72138 35527 ft 461 kts 18°
2026-05-06 20:23 54.03435 5.73999 35786 ft 462 kts 18°
2026-05-06 20:23 54.06461 5.75867 36039 ft 462 kts 18°
2026-05-06 20:23 54.09484 5.77735 36282 ft 463 kts 18°
2026-05-06 20:23 54.12521 5.79614 36536 ft 463 kts 18°
2026-05-06 20:24 54.15547 5.81489 36779 ft 463 kts 18°
2026-05-06 20:24 54.18585 5.83375 36969 ft 465 kts 18°
2026-05-06 20:24 54.24615 5.87126 37013 ft 463 kts 18°
2026-05-06 20:25 54.30676 5.90900 37011 ft 463 kts 18°
2026-05-06 20:25 54.36732 5.94679 37017 ft 464 kts 18°
2026-05-06 20:26 54.42800 5.98493 37011 ft 464 kts 18°
2026-05-06 20:26 54.48866 6.02302 37023 ft 464 kts 18°
2026-05-06 20:27 54.54931 6.06127 37027 ft 464 kts 18°
2026-05-06 20:27 54.60995 6.09987 37026 ft 464 kts 18°
2026-05-06 20:28 54.67060 6.13854 37025 ft 464 kts 18°
2026-05-06 20:28 54.73083 6.17698 37025 ft 465 kts 18°
2026-05-06 20:29 54.79145 6.21567 37024 ft 465 kts 18°
2026-05-06 20:29 54.85050 6.25353 37018 ft 465 kts 18°
2026-05-06 20:30 54.93737 6.30951 37024 ft 465 kts 18°
2026-05-06 20:31 54.99812 6.34868 37025 ft 465 kts 18°
2026-05-06 20:31 55.05895 6.38747 37025 ft 466 kts 17°
2026-05-06 20:32 55.12007 6.42568 37027 ft 466 kts 17°
2026-05-06 20:32 55.18066 6.46380 37023 ft 466 kts 17°
2026-05-06 20:33 55.24171 6.50236 37029 ft 466 kts 17°
2026-05-06 20:33 55.30281 6.54115 37030 ft 467 kts 17°
2026-05-06 20:34 55.36382 6.58031 37032 ft 467 kts 17°
2026-05-06 20:34 55.42494 6.61960 37029 ft 467 kts 17°
2026-05-06 20:35 55.48609 6.65868 37039 ft 467 kts 17°
2026-05-06 20:35 55.54716 6.69796 37044 ft 468 kts 17°
2026-05-06 20:36 55.60835 6.73765 37040 ft 468 kts 17°
2026-05-06 20:36 55.66906 6.77704 37040 ft 468 kts 17°
2026-05-06 20:37 55.73019 6.81686 37039 ft 468 kts 17°
2026-05-06 20:37 55.79132 6.85679 37036 ft 468 kts 17°
2026-05-06 20:38 55.85257 6.89684 37043 ft 469 kts 17°
2026-05-06 20:38 55.91368 6.93710 37043 ft 469 kts 17°
2026-05-06 20:39 55.97487 6.97758 37047 ft 469 kts 17°
2026-05-06 20:39 56.03612 7.01806 37046 ft 469 kts 17°
2026-05-06 20:40 56.09726 7.05859 37051 ft 469 kts 17°
2026-05-06 20:40 56.15850 7.09935 37044 ft 469 kts 17°
2026-05-06 20:41 56.21964 7.14037 37042 ft 469 kts 17°
2026-05-06 20:41 56.27418 7.17707 37041 ft 469 kts 17°
2026-05-06 20:42 56.33540 7.21831 37041 ft 469 kts 17°
2026-05-06 20:42 56.39663 7.25963 37042 ft 469 kts 17°
2026-05-06 20:43 56.45785 7.30100 37043 ft 469 kts 17°
2026-05-06 20:43 56.51905 7.34253 37043 ft 470 kts 17°
2026-05-06 20:44 56.58020 7.38425 37045 ft 470 kts 17°
2026-05-06 20:44 56.64131 7.42625 37044 ft 470 kts 17°
2026-05-06 20:45 56.70208 7.46811 37039 ft 470 kts 17°
2026-05-06 20:45 56.76319 7.51018 37042 ft 470 kts 17°
2026-05-06 20:46 56.82434 7.55256 37040 ft 470 kts 17°
2026-05-06 20:46 56.88551 7.59505 37036 ft 470 kts 17°
2026-05-06 20:47 56.94667 7.63755 37037 ft 470 kts 17°
2026-05-06 20:47 57.00789 7.68025 37031 ft 470 kts 17°
2026-05-06 20:48 57.06901 7.72313 37024 ft 470 kts 17°
2026-05-06 20:48 57.13016 7.76636 37022 ft 471 kts 17°
2026-05-06 20:49 57.19128 7.80970 37020 ft 471 kts 17°
2026-05-06 20:49 57.25234 7.85305 37027 ft 471 kts 17°
2026-05-06 20:50 57.31353 7.89655 37016 ft 471 kts 17°
2026-05-06 20:50 57.37468 7.94020 37007 ft 471 kts 17°
2026-05-06 20:51 57.43584 7.98403 37009 ft 471 kts 17°
2026-05-06 20:51 57.49492 8.03579 37007 ft 475 kts 25°
2026-05-06 20:52 57.55278 8.09532 37007 ft 475 kts 26°
2026-05-06 20:52 57.61057 8.15516 37004 ft 475 kts 26°
2026-05-06 20:53 57.66834 8.21515 37005 ft 475 kts 26°
2026-05-06 20:53 57.72616 8.27527 37003 ft 475 kts 26°
2026-05-06 20:54 57.78399 8.33564 37000 ft 476 kts 26°
2026-05-06 20:54 57.84178 8.39630 36999 ft 476 kts 26°
2026-05-06 20:55 57.88984 8.44687 37000 ft 476 kts 26°
2026-05-06 20:55 57.94755 8.50781 36996 ft 476 kts 26°
2026-05-06 20:56 58.00535 8.56899 37003 ft 477 kts 26°
2026-05-06 20:56 58.07265 8.64049 37003 ft 477 kts 26°
2026-05-06 20:57 58.12112 8.69216 36995 ft 477 kts 26°
2026-05-06 20:57 58.17888 8.75424 36997 ft 478 kts 26°
2026-05-06 20:58 58.23668 8.81660 36997 ft 478 kts 26°
2026-05-06 20:58 58.29416 8.87857 36993 ft 478 kts 26°
2026-05-06 20:59 58.35199 8.94129 36994 ft 479 kts 26°
2026-05-06 20:59 58.40988 9.00423 36931 ft 480 kts 26°
2026-05-06 20:59 58.43896 9.03588 36685 ft 480 kts 26°
2026-05-06 21:00 58.46798 9.06755 36428 ft 480 kts 26°
2026-05-06 21:00 58.49700 9.09931 36178 ft 481 kts 26°
2026-05-06 21:00 58.52602 9.13113 35934 ft 481 kts 26°
2026-05-06 21:00 58.55509 9.16311 35699 ft 482 kts 26°
2026-05-06 21:01 58.58401 9.19503 35447 ft 482 kts 26°
2026-05-06 21:01 58.61327 9.22739 35205 ft 483 kts 26°
2026-05-06 21:01 58.64234 9.25960 34973 ft 484 kts 26°
2026-05-06 21:01 58.67157 9.29200 34560 ft 485 kts 26°
2026-05-06 21:02 58.70110 9.32467 33484 ft 494 kts 25°
2026-05-06 21:02 58.73066 9.35745 32956 ft 487 kts 25°
2026-05-06 21:02 58.75987 9.39005 32276 ft 484 kts 25°
2026-05-06 21:02 58.78895 9.42268 31618 ft 481 kts 25°
2026-05-06 21:03 58.81775 9.45509 30987 ft 478 kts 25°
2026-05-06 21:03 58.84636 9.48726 30367 ft 475 kts 25°
2026-05-06 21:03 58.87483 9.51927 29671 ft 472 kts 25°
2026-05-06 21:03 58.90309 9.55101 29052 ft 467 kts 25°
2026-05-06 21:04 58.93104 9.58238 28448 ft 463 kts 25°
2026-05-06 21:04 58.95880 9.61357 27828 ft 458 kts 25°
2026-05-06 21:04 58.98618 9.64449 27249 ft 453 kts 25°
2026-05-06 21:04 59.01336 9.67534 26676 ft 449 kts 25°
2026-05-06 21:05 59.04018 9.70587 26121 ft 444 kts 25°
2026-05-06 21:05 59.06663 9.73605 25593 ft 439 kts 25°
2026-05-06 21:05 59.09287 9.76605 25068 ft 434 kts 25°
2026-05-06 21:05 59.11844 9.79530 24558 ft 429 kts 25°
2026-05-06 21:06 59.14403 9.82459 24049 ft 424 kts 25°
2026-05-06 21:06 59.16936 9.85360 23515 ft 421 kts 25°
2026-05-06 21:06 59.19449 9.88238 22945 ft 417 kts 25°
2026-05-06 21:06 59.21933 9.91091 22422 ft 412 kts 25°
2026-05-06 21:07 59.24394 9.93927 21899 ft 408 kts 25°
2026-05-06 21:07 59.26820 9.96734 21374 ft 404 kts 25°
2026-05-06 21:07 59.29235 9.99532 20839 ft 402 kts 25°
2026-05-06 21:07 59.31631 10.02309 20312 ft 399 kts 25°
2026-05-06 21:08 59.34012 10.05070 19786 ft 397 kts 25°
2026-05-06 21:08 59.36389 10.07825 19253 ft 395 kts 25°
2026-05-06 21:08 59.38747 10.10562 18733 ft 393 kts 25°
2026-05-06 21:08 59.41091 10.13291 18212 ft 391 kts 25°
2026-05-06 21:09 59.43423 10.16016 17653 ft 389 kts 25°
2026-05-06 21:09 59.45736 10.18724 17155 ft 385 kts 25°
2026-05-06 21:09 59.48028 10.21411 16657 ft 382 kts 26°
2026-05-06 21:09 59.50302 10.24079 16162 ft 380 kts 26°
2026-05-06 21:10 59.52570 10.26742 15674 ft 378 kts 26°
2026-05-06 21:10 59.54813 10.29378 15194 ft 375 kts 26°
2026-05-06 21:10 59.57021 10.31974 14721 ft 373 kts 26°
2026-05-06 21:10 59.59245 10.34597 14247 ft 371 kts 27°
2026-05-06 21:11 59.61441 10.37195 13814 ft 367 kts 27°
2026-05-06 21:11 59.63631 10.39788 13321 ft 364 kts 27°
2026-05-06 21:11 59.65794 10.42351 12794 ft 361 kts 27°
2026-05-06 21:11 59.67935 10.44886 12282 ft 359 kts 27°
2026-05-06 21:12 59.70058 10.47414 11786 ft 355 kts 29°
2026-05-06 21:12 59.71969 10.50559 11276 ft 356 kts 41°
2026-05-06 21:12 59.73761 10.53883 10833 ft 351 kts 41°
2026-05-06 21:12 59.75529 10.57151 10592 ft 341 kts 41°
2026-05-06 21:13 59.77233 10.60296 10461 ft 328 kts 41°
2026-05-06 21:13 59.78874 10.63334 10335 ft 317 kts 41°
2026-05-06 21:13 59.80463 10.66279 10083 ft 307 kts 41°
2026-05-06 21:13 59.82014 10.69153 9451 ft 303 kts 41°
2026-05-06 21:14 59.83539 10.71985 8769 ft 298 kts 42°
2026-05-06 21:14 59.85044 10.74786 8104 ft 293 kts 42°
2026-05-06 21:14 59.86518 10.77530 7452 ft 288 kts 42°
2026-05-06 21:14 59.87971 10.80231 6832 ft 283 kts 43°
2026-05-06 21:15 59.89397 10.82891 6192 ft 278 kts 43°
2026-05-06 21:15 59.90798 10.85515 5504 ft 274 kts 43°
2026-05-06 21:15 59.92149 10.88050 5040 ft 263 kts 43°
2026-05-06 21:15 59.93413 10.90428 4971 ft 238 kts 43°
2026-05-06 21:16 59.94567 10.92602 4880 ft 219 kts 43°
2026-05-06 21:16 59.95666 10.94671 4793 ft 216 kts 43°
2026-05-06 21:16 59.96752 10.96715 4695 ft 214 kts 43°
2026-05-06 21:16 59.97820 10.98710 4603 ft 206 kts 39°
2026-05-06 21:17 59.99014 11.00119 4522 ft 196 kts 18°
2026-05-06 21:17 60.00315 11.00887 4328 ft 194 kts 15°
2026-05-06 21:17 60.01608 11.01619 4097 ft 191 kts 15°
2026-05-06 21:17 60.02869 11.02337 3825 ft 186 kts 15°
2026-05-06 21:18 60.04079 11.03029 3568 ft 175 kts 14°
2026-05-06 21:18 60.05215 11.03679 3337 ft 165 kts 14°
2026-05-06 21:18 60.06287 11.04292 3128 ft 155 kts 14°
2026-05-06 21:18 60.07280 11.04862 2920 ft 143 kts 14°
2026-05-06 21:19 60.08212 11.05396 2719 ft 138 kts 14°
2026-05-06 21:19 60.09127 11.05920 2540 ft 135 kts 14°
2026-05-06 21:19 60.10027 11.06436 2351 ft 134 kts 13°
2026-05-06 21:19 60.10923 11.06950 2165 ft 134 kts 13°
2026-05-06 21:20 60.11819 11.07464 1981 ft 134 kts 13°
2026-05-06 21:20 60.12717 11.07980 1794 ft 134 kts 13°
2026-05-06 21:20 60.13603 11.08490 1587 ft 134 kts 13°
2026-05-06 21:20 60.14511 11.09012 1378 ft 133 kts 14°
2026-05-06 21:21 60.15397 11.09522 1180 ft 132 kts 14°
2026-05-06 21:21 60.16277 11.10028 1000 ft 131 kts 15°
2026-05-06 21:21 60.17139 11.10532 815 ft 130 kts 15°
2026-05-06 21:21 60.18001 11.11022 685 ft 124 kts 16°
2026-05-06 21:22 60.18696 11.11423 684 ft 80 kts 16°
2026-05-06 21:22 60.19082 11.11646 684 ft 38 kts 16°
2026-05-06 21:22 60.19282 11.11691 683 ft 17 kts 352°
2026-05-06 21:22 60.19365 11.11599 682 ft 12 kts 303°
2026-05-06 21:23 60.19391 11.11445 682 ft 10 kts 285°
2026-05-06 21:23 60.19409 11.11309 679 ft 11 kts 285°
2026-05-06 21:23 60.19435 11.11121 683 ft 18 kts 285°
2026-05-06 21:23 60.19468 11.10895 680 ft 16 kts 286°
2026-05-06 21:24 60.19489 11.10747 683 ft 7 kts 286°
2026-05-06 21:24 60.19484 11.10707 684 ft 2 kts 230°
2026-05-06 21:24 60.19454 11.10681 685 ft 5 kts 194°
2026-05-06 21:24 60.19417 11.10661 685 ft 5 kts 195°
2026-05-06 21:25 60.19399 11.10651 684 ft 1 kts 196°
2026-05-06 21:25 60.19390 11.10646 685 ft 0 kts 195°